sat.trackr.live / text

‹ back to catalog

QIANFAN-231

NORAD 69860 · 2026-155N

PAYLOAD ACTIVE UNKNOWN

§ Identity

Operator
Country
PRC
Launch date
2026-07-05
Launch site
WSC
Launch vehicle
Mass (kg)
RCS (m²)

External: N2YO · Heavens-Above · Gunter

§ Orbital elements

Epoch: 2026-09-19T21:40:16.862016Z

Period
106.05 min
Inclination
89.0087°
Eccentricity
0.0036827
Mean motion
13.57849306 rev/d
Perigee alt
1,016.2 km
Apogee alt
1,070.9 km
Semi-major
7,421.7 km
B*
4.5820e-5
RAAN
53.7512°
Arg perigee
8.9579°
Mean anomaly
351.2225°
Rev number
1,066

§ Raw data

QIANFAN-2311 69860U 26155N   26262.90297294  .00000045  00000+0  45820-4 0  99992 69860  89.0087  53.7512 0036827   8.9579 351.2225 13.57849306 10669

JSON: /api/v1/satellites/69860 · /tle

For live sub-satellite position, see the globe view (requires WebGL).

§ Visibility from observer

Set your observer location to see the next 7 days of passes ≥ 10°. The values pass through the URL so the page stays shareable.

No JS? Fill the form by hand. The geolocation button needs JavaScript.